Voltar ao catálogo

STARLINK-4032

AtivoComunicaçõesVLEO
NORAD 52688·PAYLOAD·🇺🇸 United States

Lançado May 18, 2022 de Cape Canaveral Space Force Station

Loading…

Próximas Passagens (próximas 24 horas)

TLE

AtualizadoSource: CelesTrak SupGP

Época: Sep 14, 2026, 20:56 UTC

1 52688C 22053AJ  26257.87270833  .00246030  00000+0  10236-1 0  2575
2 52688  53.1603  13.2052 0001229  80.6687 216.0394 15.23117238    10

Acompanhe STARLINK-4032 em tempo real com AllMySat

Download on the App Store